Date String (YYYY-MM-DD hh:mm:ss) UTC,Instrument flags,absolute air pressure of the measurement (hPa),sample flow rate (lpm),inlet stack bypass flow (lpm),air temperature of the measurement (°C),ambient temperature measured by the external sensor (°C),aerosol sample conditioner tube jacket temperature (°C),OPC LED temperature (°C),internal box temperature (°C),relative humidity of the measurement (%),span deviation,mass concentration of particles derived from Lorenz-Mie calculation of OPC scattering (μg/m³),mass concentration of particles derived from Lorenz-Mie calculation of OPC scattering (μg/m³),mass concentration of particles derived from Lorenz-Mie calculation of OPC scattering (μg/m³)
DateTimeUTC,F1_M11,P_M11,Q1_M11,Q2_M11,T1_M11,T2_M11,T3_M11,T4_M11,T5_M11,U1_M11,ZSPAN_M11,X0_M11,X2_M11,X1_M11
2023-10-28 11:00:00,SystemResetWarning,0829.9,5.00,000.00,021.8,021.0,000.0,030.0,023.4,12.5,0000.0,0012.22,0004.45,0003.58
2023-10-28 11:01:00,SystemResetWarning,0829.8,5.00,000.00,021.8,020.9,000.0,030.0,023.4,12.5,0000.0,0012.41,0004.41,0003.56
2023-10-28 11:02:00,SystemResetWarning,0829.8,5.00,000.00,021.8,020.8,000.0,030.1,023.3,12.5,0000.0,0012.08,0004.35,0003.55
2023-10-28 11:03:00,SystemResetWarning,0829.8,5.01,000.00,021.7,020.7,000.0,030.1,023.3,12.6,0000.0,0012.75,0004.36,0003.54
2023-10-28 11:04:00,SystemResetWarning,0829.7,5.01,000.00,021.7,020.6,000.0,030.1,023.2,12.5,0000.0,0012.59,0004.39,0003.52
2023-10-28 11:05:00,SystemResetWarning,0829.7,5.00,000.00,021.7,020.5,000.0,030.1,023.2,12.5,0000.0,0012.16,0004.37,0003.51
2023-10-28 11:06:00,SystemResetWarning,0829.8,4.99,000.00,021.7,020.5,000.0,030.1,023.2,12.4,0000.0,0011.89,0004.37,0003.51
2023-10-28 11:07:00,SystemResetWarning,0829.8,4.99,000.00,021.7,020.4,000.0,030.1,023.2,12.4,0000.0,0011.76,0004.37,0003.50
2023-10-28 11:08:00,SystemResetWarning,0829.8,5.01,000.00,021.7,020.3,000.0,030.1,023.2,12.3,0000.0,0011.55,0004.36,0003.49
2023-10-28 11:09:00,SystemResetWarning,0829.9,5.00,000.00,021.7,020.3,000.0,030.1,023.2,12.3,0000.0,0011.36,0004.32,0003.48
2023-10-28 11:10:00,SystemResetWarning,0830.0,5.00,000.00,021.6,020.3,000.0,030.1,023.2,12.3,0000.5,0011.27,0004.28,0003.47
2023-10-28 11:11:00,SystemResetWarning,0830.0,5.01,000.00,021.6,020.2,000.0,030.1,023.1,12.3,0005.1,0010.64,0004.28,0003.47
2023-10-28 11:12:00,SystemResetWarning,0829.9,5.00,000.00,021.6,020.2,000.0,030.0,023.1,12.2,0000.1,0010.14,0004.31,0003.48
2023-10-28 11:13:00,SystemResetWarning,0829.9,5.00,000.00,021.6,020.1,000.0,030.0,023.1,12.1,0000.0,0010.07,0004.32,0003.47
2023-10-28 11:14:00,SystemResetWarning,0829.9,4.99,000.00,021.6,020.1,000.0,030.0,023.1,12.2,0000.0,0009.19,0004.29,0003.46
2023-10-28 11:15:00,SystemResetWarning,0829.9,4.99,000.00,021.6,020.1,000.0,030.0,023.0,12.1,0000.0,0008.94,0004.22,0003.46
2023-10-28 11:16:00,SystemResetWarning,0830.0,5.00,000.00,021.5,020.0,000.0,030.0,023.0,12.1,0000.0,0008.71,0004.20,0003.46
2023-10-28 11:17:00,SystemResetWarning,0830.0,5.01,000.00,021.5,020.2,000.0,029.9,023.1,12.1,0000.0,0008.92,0004.20,0003.47
2023-10-28 11:18:00,SystemResetWarning,0830.0,5.01,000.00,021.7,021.0,000.0,029.9,023.5,12.1,0000.0,0008.82,0004.16,0003.47
2023-10-28 11:19:00,SystemResetWarning,0830.0,5.00,000.00,021.8,021.7,000.0,029.9,023.7,11.9,0000.0,0008.56,0004.15,0003.47
2023-10-28 11:20:00,SystemResetWarning,0830.0,5.00,000.00,021.8,021.6,000.0,029.9,023.6,11.9,0000.0,0008.65,0004.15,0003.47
2023-10-28 11:21:00,SystemResetWarning,0830.1,5.00,000.00,021.8,021.4,000.0,030.0,023.4,11.9,0000.0,0009.01,0004.18,0003.48
2023-10-28 11:22:00,SystemResetWarning,0830.0,5.00,000.00,021.8,021.2,000.0,030.0,023.4,11.9,0000.0,0009.16,0004.17,0003.48
2023-10-28 11:23:00,SystemResetWarning,0830.1,5.00,000.00,021.8,021.1,000.0,030.0,023.3,11.9,0000.0,0009.56,0004.14,0003.48
2023-10-28 11:24:00,SystemResetWarning,0830.1,5.00,000.00,021.8,020.9,000.0,030.1,023.3,11.9,0000.0,0009.87,0004.15,0003.49
2023-10-28 11:25:00,SystemResetWarning,0830.1,5.00,000.00,021.7,020.8,000.0,030.1,023.2,12.0,0000.0,0012.21,0004.16,0003.49
2023-10-28 11:26:00,SystemResetWarning,0830.1,5.00,000.00,021.7,020.7,000.0,030.1,023.2,11.9,0000.0,0012.77,0004.18,0003.49
2023-10-28 11:27:00,SystemResetWarning,0830.1,5.00,000.00,021.7,020.6,000.0,030.1,023.2,11.9,0000.0,0013.07,0004.23,0003.50
2023-10-28 11:28:00,SystemResetWarning,0830.1,5.00,000.00,021.7,020.5,000.0,030.1,023.1,12.0,0000.0,0012.82,0004.24,0003.49
2023-10-28 11:29:00,SystemResetWarning,0830.1,5.01,000.00,021.7,020.4,000.0,030.1,023.1,12.0,0000.0,0012.55,0004.23,0003.49
2023-10-28 11:30:00,SystemResetWarning,0830.1,5.01,000.00,021.6,020.3,000.0,030.1,023.1,12.0,0000.0,0013.29,0004.22,0003.48
2023-10-28 11:31:00,SystemResetWarning,0830.1,5.00,000.00,021.6,020.3,000.0,030.1,023.1,12.1,0000.0,0013.88,0004.20,0003.47
2023-10-28 11:32:00,SystemResetWarning,0830.2,4.99,000.00,021.6,020.2,000.0,030.0,023.1,12.1,0000.0,0013.86,0004.18,0003.47
2023-10-28 11:33:00,SystemResetWarning,0830.2,4.99,000.00,021.6,020.2,000.0,030.0,023.1,12.0,0000.0,0013.85,0004.17,0003.47
2023-10-28 11:34:00,SystemResetWarning,0830.2,5.00,000.00,021.6,020.2,000.0,030.0,023.0,12.0,0000.0,0013.62,0004.18,0003.48
2023-10-28 11:35:00,SystemResetWarning,0830.2,5.00,000.00,021.6,020.2,000.0,030.0,023.0,12.0,0000.0,0013.46,0004.22,0003.48
2023-10-28 11:36:00,SystemResetWarning,0830.2,5.00,000.00,021.6,020.1,000.0,030.0,023.0,12.0,0000.0,0011.54,0004.25,0003.48
2023-10-28 11:37:00,SystemResetWarning,0830.2,5.01,000.00,021.5,020.1,000.0,030.0,023.0,12.1,0000.0,0010.55,0004.24,0003.49
2023-10-28 11:38:00,SystemResetWarning,0830.2,5.00,000.00,021.5,020.1,000.0,030.0,023.0,12.1,0000.0,0010.22,0004.20,0003.48
2023-10-28 11:39:00,SystemResetWarning,0830.2,5.00,000.00,021.5,020.1,000.0,030.0,023.0,12.0,0000.0,0010.67,0004.15,0003.46
2023-10-28 11:40:00,SystemResetWarning,0830.2,5.00,000.00,021.5,020.1,000.0,030.0,023.0,12.0,0000.0,0011.25,0004.16,0003.47
2023-10-28 11:41:00,SystemResetWarning,0830.3,5.00,000.00,021.5,020.1,000.0,029.9,023.0,11.9,0000.0,0010.55,0004.17,0003.47
2023-10-28 11:42:00,SystemResetWarning,0830.3,5.00,000.00,021.6,020.6,000.0,029.9,023.3,12.0,0000.0,0010.31,0004.21,0003.48
2023-10-28 11:43:00,SystemResetWarning,0830.3,5.00,000.00,021.7,021.4,000.0,029.8,023.6,11.9,0000.0,0009.94,0004.22,0003.49
2023-10-28 11:44:00,SystemResetWarning,0830.3,4.99,000.00,021.8,021.7,000.0,029.9,023.6,11.8,0000.0,0010.22,0004.22,0003.49
2023-10-28 11:45:00,SystemResetWarning,0830.3,4.99,000.00,021.8,021.5,000.0,029.9,023.5,11.8,0000.0,0010.44,0004.22,0003.48
2023-10-28 11:46:00,SystemResetWarning,0830.3,5.00,000.00,021.8,021.3,000.0,030.0,023.4,11.8,0000.0,0010.72,0004.21,0003.48
2023-10-28 11:47:00,SystemResetWarning,0830.3,5.00,000.00,021.8,021.1,000.0,030.0,023.3,11.8,0000.0,0011.06,0004.22,0003.48
2023-10-28 11:48:00,SystemResetWarning,0830.3,5.00,000.00,021.7,020.9,000.0,030.0,023.3,11.8,0000.0,0011.42,0004.19,0003.48
2023-10-28 11:49:00,SystemResetWarning,0830.4,5.00,000.00,021.7,020.8,000.0,030.0,023.3,11.8,0000.0,0012.67,0004.20,0003.48
2023-10-28 11:50:00,SystemResetWarning,0830.4,5.00,000.00,021.7,020.7,000.0,030.0,023.2,11.8,0000.0,0013.11,0004.21,0003.49
2023-10-28 11:51:00,SystemResetWarning,0830.4,5.01,000.00,021.7,020.6,000.0,030.1,023.2,11.8,0000.0,0012.40,0004.19,0003.49
2023-10-28 11:52:00,SystemResetWarning,0830.4,5.01,000.00,021.7,020.5,000.0,030.1,023.2,11.9,0000.0,0013.05,0004.19,0003.48
2023-10-28 11:53:00,SystemResetWarning,0830.4,5.01,000.00,021.7,020.4,000.0,030.1,023.2,11.9,0000.0,0012.99,0004.17,0003.47
2023-10-28 11:54:00,SystemResetWarning,0830.4,4.99,000.00,021.7,020.4,000.0,030.0,023.1,11.9,0000.0,0013.29,0004.15,0003.46
2023-10-28 11:55:00,SystemResetWarning,0830.6,4.99,000.00,021.7,020.3,000.0,030.0,023.1,11.9,0000.0,0013.14,0004.18,0003.45
2023-10-28 11:56:00,SystemResetWarning,0830.6,5.00,000.00,021.6,020.3,000.0,030.0,023.1,11.9,0000.0,0012.69,0004.20,0003.45
2023-10-28 11:57:00,SystemResetWarning,0830.5,5.00,000.00,021.6,020.3,000.0,030.0,023.1,11.9,0000.0,0012.39,0004.18,0003.46
2023-10-28 11:58:00,SystemResetWarning,0830.6,5.01,000.00,021.6,020.2,000.0,030.0,023.1,11.9,0000.0,0012.11,0004.16,0003.45
2023-10-28 11:59:00,SystemResetWarning,0830.6,5.00,000.00,021.6,020.2,000.0,030.0,023.0,11.9,0000.0,0011.95,0004.18,0003.45
